Hourly Data Report for June 16, 2004

TORONTO CITY
ONTARIO

43°40'00.000" N
79°24'00.000" W
112.50 m
6158355
71508
XTO

Download Data

Hourly Data (June 2004)
Hourly Data Report for June 16, 2004
TIME
LST
Temp Definition
°C
Dew Point Definition
°C
Rel Hum Definition
%
Precip. Amount Definition
mm

Wind Dir Definition
10's deg

Wind Spd Definition
km/h
Visibility Definition
km
Stn Press Definition
kPa
Hmdx Definition


Wind Chill Definition


Weather Definition


00:00 18.6 10.3 58   LegendMM LegendMM LegendMM 100.70     LegendNANA
01:00 16.6 10.6 68   LegendMM LegendMM LegendMM 100.74     LegendNANA
02:00 16.8 11.0 69   LegendMM LegendMM LegendMM 100.74     LegendNANA
03:00 16.2 10.7 70   LegendMM LegendMM LegendMM 100.76     LegendNANA
04:00 15.4 10.1 71   LegendMM LegendMM LegendMM 100.79     LegendNANA
05:00 14.6 11.2 80   LegendMM LegendMM LegendMM 100.85     LegendNANA
06:00 16.3 10.9 70   LegendMM LegendMM LegendMM 100.88     LegendNANA
07:00 17.3 11.0 66   LegendMM LegendMM LegendMM 100.91     LegendNANA
08:00 18.5 11.5 64   LegendMM LegendMM LegendMM 100.91     LegendNANA
09:00 20.3 12.4 60   LegendMM LegendMM LegendMM 100.85     LegendNANA
10:00 20.8 12.2 58   LegendMM LegendMM LegendMM 100.88     LegendNANA
11:00 21.3 13.3 60   LegendMM LegendMM LegendMM 100.83     LegendNANA
12:00 21.1 12.2 57   LegendMM LegendMM LegendMM 100.81     LegendNANA
13:00 21.4 11.9 55   LegendMM LegendMM LegendMM 100.79     LegendNANA
14:00 21.7 11.8 53   LegendMM LegendMM LegendMM 100.76     LegendNANA
15:00 21.6 11.7 53   LegendMM LegendMM LegendMM 100.69     LegendNANA
16:00 22.3 11.0 49   LegendMM LegendMM LegendMM 100.66     LegendNANA
17:00 20.9 10.8 52   LegendMM LegendMM LegendMM 100.58     LegendNANA
18:00 20.7 10.6 52   LegendMM LegendMM LegendMM 100.54     LegendNANA
19:00 21.0 10.5 51   LegendMM LegendMM LegendMM 100.52     LegendNANA
20:00 20.6 10.4 52   LegendMM LegendMM LegendMM 100.49     LegendNANA
21:00 19.3 10.3 56   LegendMM LegendMM LegendMM 100.61     LegendNANA
22:00 19.1 10.2 56   LegendMM LegendMM LegendMM 100.60     LegendNANA
23:00 18.0 12.0 68   LegendMM LegendMM LegendMM 100.54     LegendNANA

Notes on Data Quality.

Legend

  • E = Estimated
  • M = Missing
  • NA = Not Available*
  • [empty] = Indicates an unobserved value
Date modified: